Date,TemperatureHighF,TemperatureAvgF,TemperatureLowF,DewpointHighF,DewpointAvgF,DewpointLowF,HumidityHigh,HumidityAvg,HumidityLow,PressureMaxIn,PressureMinIn,WindSpeedMaxMPH,WindSpeedAvgMPH,GustSpeedMaxMPH,PrecipitationSumIn
2013-1-1,34,26,19,25,17,12,76,68,54,30.24,30.07,22,9,22,0.00
2013-1-2,38,26,13,17,11,4,71,54,37,30.32,30.21,14,6,14,0.00
2013-1-3,38,27,19,12,7,2,60,43,29,30.30,30.11,24,11,24,0.00
2013-1-4,46,31,24,18,11,4,63,44,30,30.14,30.07,14,6,14,0.00
2013-1-5,43,32,27,20,17,13,68,54,36,30.26,30.10,14,6,14,0.00
2013-1-6,45,35,26,21,14,10,72,43,26,30.09,29.88,20,6,20,0.00
2013-1-7,46,36,26,23,19,16,73,52,30,29.95,29.69,17,4,17,0.00
2013-1-8,50,41,31,24,18,7,60,41,19,30.03,29.71,24,8,24,0.00
2013-1-9,56,46,33,26,21,16,57,38,21,30.01,29.73,22,8,22,0.00
2013-1-10,56,35,18,30,21,12,82,59,26,29.74,29.56,14,6,14,0.00
2013-1-11,18,11,8,12,7,4,89,84,70,30.12,29.74,15,5,15,0.00
2013-1-12,19,9,1,8,4,-2,87,79,55,30.13,30.08,13,4,13,0.00
2013-1-13,23,11,4,9,3,-3,78,70,53,30.18,30.11,21,6,21,0.00
2013-1-14,20,14,8,8,3,0,75,62,46,30.15,30.00,20,11,20,0.00
2013-1-15,35,25,18,23,16,8,79,68,57,30.13,29.99,26,13,26,0.00
2013-1-16,52,37,27,25,20,16,69,50,29,30.31,30.08,24,9,24,0.00
2013-1-17,46,36,27,22,18,16,62,49,37,30.33,30.02,23,11,23,0.00
2013-1-18,60,43,35,19,15,1,47,34,10,30.05,29.91,18,8,18,0.00
2013-1-19,44,34,20,26,19,13,93,57,28,30.26,30.03,15,4,15,0.00
2013-1-20,36,23,14,21,15,10,82,73,51,30.43,30.11,15,4,15,0.00
2013-1-21,33,20,11,18,12,8,90,75,50,30.28,30.02,8,2,8,0.00
2013-1-22,49,34,14,18,14,10,90,47,24,30.08,30.01,13,5,13,0.00
2013-1-23,28,22,16,18,15,12,86,74,58,30.20,29.94,8,2,8,0.00
2013-1-24,55,37,18,26,20,14,85,53,29,30.11,29.88,26,4,26,0.00
2013-1-25,55,38,22,27,23,17,86,57,30,30.11,29.94,13,4,13,0.00
2013-1-26,68,45,34,29,25,21,69,48,17,29.95,29.72,14,3,14,0.00
2013-1-27,38,32,28,34,29,24,98,89,65,29.87,29.73,10,2,10,0.00
2013-1-28,43,31,25,29,20,9,98,69,28,29.89,29.75,14,3,14,0.04
2013-1-29,29,20,5,20,10,-1,80,66,48,30.17,29.73,17,5,17,0.00
2013-1-30,40,23,8,28,17,3,95,80,48,30.06,29.83,21,5,21,0.01
2013-1-31,30,16,1,24,11,-2,93,81,64,30.21,30.00,17,5,17,0.00